COSMOS 2491 DEB, 45130

Orbit data source: Space-Track

COSMOS 2491 DEB, 45130 is space debris in LEO originally from a launch on Wed, 25 Dec 2013 UTC launched from the Plesetsk Missile And Space Complex (PKMTR). Debris objects in space refer to the collection of defunct objects orbiting the Earth. Examples of debris include non-operational satellites, rocket bodies, and fragments generated from explosions, collisions, or faulty payload assembly.

Loading next visibility...
Identifier
45130, 2013-076AC
Orbit
LEO
Country
Flag of CISCIS
Related business
Manufacturer
TsNIIKhM
Mission
Spacecraft
Bus & Motor
Unknown
Mass
Unknown
Launch date (UTC)
2013-12-25 (12 years ago)
Launch vehicle
Unknown
Launch site
Plesetsk Missile And Space Complex (PKMTR)
Object type
Payload
Rocket body
Debris
Shape & HBR
Unknown shape, 0.1 m
Radar Cross Section
Small (<0.1 m²)

Expand to show TLE details & history
Last TLE update: 3 days ago

TLE from 3 days ago
0 COSMOS 2491 DEB
1 45130U 13076AC  25284.20056010  .00003079  00000-0  14540-1 0  9999
2 45130  82.4518 266.5988 0166380 348.6279  11.1075 12.70478687263051
Epoch: 2025-10-11T04:48Z
TLE epoch observation values (Epoch: 2025-10-11T04:48:48.392Z)
Latitude
-0.00005°
Longitude
174.3617°
Altitude
1,256.128 km
Speed
7.286 km/s
True Right ascension
17h 46m 23s
True Declination
0° 00' 00"
Sunlit
Object was in daylight at epoch
Visualization orbit readout
Latitude
Unknown
Longitude
Unknown
Altitude
Unknown
Speed
Unknown
Apparent Right ascension
Unknown
Apparent Declination
Unknown
Sunlit
N/A
Visualization observer readout
Local Sidereal Time
18:51:36
Azimuth
Unknown
Elevation
Unknown
Doppler factor
Unknown
Orbital elements
Apogee altitude
1,506.338 km
Perigee altitude
1,248.268 km
Semi-major axis
7,755.44 km
Eccentricity
0.01664
Inclination
82.4518°
RAAN
266.5988°
Arg. of periapsis
348.6279°
True anomaly
11.48245°
Mean anomaly
11.1075°
Eccentric anomaly
11.2942°
Mean motion
3.17785 °/min
Orbital period
113.28 mins
BSTAR
0.01454
Loading maneuver chart data...
Computing Atmospheric mass density...
Loading historical data...
Loading historical data...
Loading historical data...
Loading historical data...
Loading historical data...
Loading historical data...
Loading historical data...

Documentation

Showing up to 5 results
|